SCP
0 0 0 0 0 0 0 0 0 0 0 0 0 0 0 0 0 0 0 0 0 0 0 0 0 0 0 0 0 0 0 0 0 0 0 0 0 0 0 0 0 0 0 0 0 0 0 0 0 0 0 0 0 0
0 0 0 0 0 0 0 0 0 0 0 0 0 0 0 0 0 0 0 0 0 0 0 0 0 0 0 0 0 0 0 0 0 0 0 0 0 0 0 0 0 0 0 0 0 0 0 0 0 0 0 0 0 0
0 0 0 0 0 0 0 0 0 0 0 0 0 0 0 0 0 0 0 0 0 0 0 0 0 0 0 0 0 0 0 0 0 0 0 0 0 0 0 0 0 0 0 0 0 0 0 0 0 0 0 0 0 0
0 0 0 0 0 0 0 0 0 0 0 0 0 0 0 0 0 0 0 0 0 0 0 0 0 0 0 0 0 0 0 0 0 0 0 0 0 0 0 0 0 0 0 0 0 0 0 0 0 0 0 0 0 0
0 0 0 0 0 0 0 0 0 0 0 0 0 0 0 0 0 0 0 0 0 0 0 0 0 0 0 0 0 0 0 0 0 0 0 0 0 0 0 0 0 0 0 0 0 0 0 0 0 0 0 0 0 0
0 0 0 0 0 0 0 0 0 0 0 0 0 0 0 0 0 0 0 0 0 0 0 0 0 0 0 0 0 0 0 0 0 0 0 0 0 0 0 0 0 0 0 0 0 0 0 0 0 0 0 0 0 0
0 0 0 0 0 0 0 0 0 0 0 0 0 0 0 0 0 0 0 0 0 0 0 0 0 0 0 0 0 0 0 0 0 0 0 0 0 0 0 -0 0 0 0 0 0 0 0 0 0 0 0 0 0 0
0 0 0 0 0 0 0 0 0 0 0 0 0 0 0 0 0 0 0 0 0 -0 0 0 0 0 0 0 0 0 0 0 0 0 0 0 0 0 0 0 0 -0 0 0 0 0 0 0 0 0 0 0 0 0
0 0 0 0 0 0 0 0 0 0 0 0 0 0 0 0 0 0 0 0 0 0 -0 0 0 0 0 0 0 0 0 0 0 0 0 0 0 0 0 0 0 0 0 0 0 0 0 0 0 0 0 0 0 0
0 0 0 0 0 0 0 -0 -0 0 0 0 0 0 0 0 0 0 0 0 0 0 0 -0 -0 0 0 0 0 0 0 0 0 0 0 0 0 0 0 0 0 0 0 0 0 0 0 0 0 0 0 0 0 0
0 0 0 0 0 -0 0 0 0 -0 -0 0 0 0 0 0 0 0 0 0 0 0 0 -0 0 0 0 0 0 0 0 0 0 0 0 0 0 -0 0 0 0 0 0 0 0 -0 0 0 0 0 0 0 0 0
0 0 0 0 -0 0 0 0 -0 0 0 0 0 0 0 0 0 0 0 0 0 0 0 0 0 0 0 0 0 0 0 0 0 0 0 0 -0 0 0 0 0 0 0 0 0 0 0 0 0 0 0 -0 -0 0
0 0 0 0 -0 0 -0 -0 -0 0 0 0 0 0 0 0 0 0 0 0 0 0 0 0 0 0 0 0 0 0 0 0 0 0 0 -0 -0 0 0 0 0 0 -0 0 0 0 0 0 0 0 -0 -0 -0 -0
0 0 -0 0 0 -0 -0 -0 -0 0 0 0 0 0 0 0 0 0 0 0 0 0 0 0 0 0 0 0 0 0 0 0 0 0 -0 -0 0 0 -0 -0 0 0 -0 0 0 0 0 0 0 -0 0 -0 0 -0
0 -0 -0 -0 -0 -0 -0 0 0 0 0 0 0 0 0 0 0 0 0 0 0 0 0 0 0 0 0 0 0 0 0 0 -0 -0 -0 0 0 0 0 0 0 0 0 0 0 0 0 0 -0 -0 -0 0 0 0
-0 0 0 -0 -0 -0 -0 0 -0 0 0 0 0 0 0 0 0 0 0 0 0 0 0 0 0 0 0 0 0 0 0 -0 0 0 0 0 0 0 0 0 -0 -0 0 0 0 0 0 -0 -0 0 0 0 0 0
-0 0 0 0 0 0 0 0 0 0 0 0 0 0 0 0 0 0 0 0 0 0 0 0 0 0 0 0 0 0 0 0 0 0 -0 -0 -0 -0 -0 -0 -0 -0 0 0 0 0 0 0 0 0 0 0 0 0
0 0 -0 0 0 0 0 0 0 0 0 0 0 0 0 0 0 0 0 0 0 0 0 0 0 0 0 0 0 0 0 0 0 0 0 0 -0 -0 -0 -0 -0 -0 -0 0 -0 0 0 0 0 -0 -0 0 0 0
0 -0 -0 -0 0 0 0 0 0 0 0 0 0 0 0 0 0 0 0 0 0 0 0 0 0 0 0 0 0 0 0 0 0 0 0 0 -0 -0 -0 -0 -0 -0 0 0 0 0 0 -0 -0 -0 0 0 0 0
0 -0 -0 -0 0 0 0 0 0 0 0 0 0 -0 -0 0 0 0 0 0 0 0 0 0 0 0 0 0 0 0 0 0 0 0 0 0 0 0 0 -0 -0 0 0 0 0 0 0 -0 -0 0 0 0 0 0
0 0 0 0 0 0 0 0 0 0 0 0 0 0 -0 0 0 0 0 0 0 0 0 0 0 0 0 0 0 0 0 0 -0 -0 -0 0 0 0 0 0 -0 -0 0 -0 -0 -0 -0 -0 -0 0 0 0 0 0
0 0 0 0 0 0 0 0 0 0 0 0 0 0 -0 -0 0 0 0 0 0 0 0 0 0 0 0 0 0 0 0 -0 -0 -0 -0 -0 -0 -0 -0 -0 -0 -0 -0 -0 -0 -0 -0 -0 -0 -0 0 0 0 0
-0 0 0 0 0 -0 0 0 0 0 0 0 0 0 0 0 0 0 0 0 0 0 0 0 0 0 -0 0 0 0 0 -0 -0 -0 -0 -0 -0 -0 -0 -0 -0 -0 -0 -0 -0 -0 -0 -0 -0 0 0 0 0 0
0 0 0 0 0 0 0 0 0 0 0 0 0 0 0 0 0 0 0 0 0 0 0 0 0 0 0 0 0 0 -0 -0 -0 -0 -0 -0 -0 -0 0 0 0 -0 -0 -0 -0 -0 -0 -0 -0 0 0 0 0 0
0 0 0 0 0 0 0 0 0 0 0 0 0 0 0 0 0 0 0 0 -0 -0 0 0 0 0 -0 -0 0 -0 -0 -0 -0 -0 -0 -0 -0 0 0 0 0 -0 -0 -0 -0 -0 -0 -0 0 0 0 0 0 0
0 0 0 0 0 0 0 0 0 0 0 0 0 0 0 0 0 0 0 -0 -0 0 0 0 0 0 0 0 -0 -0 -0 -0 -0 -0 -0 -0 -0 -0 0 0 0 0 0 0 0 -0 -0 0 0 0 0 0 0 0
0 0 0 0 0 0 0 0 0 0 0 0 0 0 0 0 -0 -0 -0 0 0 0 -0 -0 -0 -0 -0 -0 -0 -0 0 -0 -0 -0 -0 -0 -0 -0 0 0 0 0 0 0 0 -0 -0 0 0 0 0 0 0 0
0 0 0 0 0 0 0 0 0 0 0 0 0 0 -0 -0 -0 0 0 0 0 0 0 0 0 -0 -0 -0 -0 -0 -0 0 -0 -0 -0 -0 -0 0 0 0 0 0 0 0 0 0 0 0 0 0 0 0 0 0
0 0 0 0 0 0 0 0 0 0 0 0 0 0 0 0 0 0 0 0 0 -0 -0 -0 0 0 0 0 -0 -0 -0 -0 -0 -0 -0 -0 -0 0 0 0 0 0 0 0 0 0 0 0 0 0 0 0 0 0
0 0 0 0 0 0 0 0 0 0 0 0 0 0 0 0 0 0 0 0 -0 -0 -0 -0 -0 -0 -0 -0 -0 -0 -0 -0 -0 -0 -0 -0 -0 0 0 0 0 0 0 0 0 0 0 0 0 0 0 0 0 0
0 0 -0 -0 -0 -0 -0 -0 -0 -0 -0 -0 -0 0 0 0 0 -0 0 0 0 0 -0 0 -0 -0 -0 -0 -0 -0 -0 -0 -0 -0 -0 -0 0 0 0 0 0 0 0 0 0 0 0 0 0 0 0 0 0 0
-0 -0 -0 -0 -0 -0 -0 -0 -0 0 -0 0 0 0 0 0 -0 0 0 0 0 -0 -0 -0 -0 -0 -0 -0 -0 -0 -0 0 0 -0 -0 0 0 0 0 0 0 0 0 0 0 0 0 0 0 0 0 0 0 0
-0 -0 -0 -0 -0 0 -0 -0 -0 -0 0 0 0 -0 -0 -0 -0 0 0 -0 -0 -0 -0 -0 -0 -0 -0 -0 0 0 -0 0 0 0 0 0 0 0 0 0 0 0 0 0 0 0 0 0 0 0 0 0 0 0
Wind_Speed_500mb
52 46 45 50 52 55 54 56 60 58 57 56 56 60 63 58 68 66 77 76 78 68 74 47 79 75 31 45 22 19 12 9 8 9 8 8 8 13 4 8 16 19 18 10 8 8 20 34 15 17 16 8 15 24
53 52 52 54 56 55 59 59 65 58 61 61 57 60 59 58 56 69 84 80 79 81 63 32 72 105 84 83 39 35 14 20 29 6 5 5 4 2 7 8 1 6 16 13 24 21 12 42 24 38 34 30 40 40
59 54 56 60 60 63 63 64 62 61 60 58 57 58 56 62 62 64 74 74 66 83 80 86 102 75 76 95 72 51 30 25 24 20 16 7 13 8 10 13 11 10 16 7 4 21 39 60 75 75 76 83 89 80
55 56 55 59 64 62 65 63 62 58 60 63 66 66 65 63 65 68 67 80 75 51 19 52 62 69 81 92 93 99 86 41 42 45 12 7 8 25 9 7 14 12 24 11 16 41 26 67 75 86 77 66 69 63
55 57 57 61 62 66 66 66 61 55 56 63 63 65 62 63 64 74 81 77 73 62 8 33 66 58 52 67 88 91 89 76 37 18 10 11 12 7 3 3 9 24 20 14 28 66 37 50 87 76 71 71 71 73
55 60 62 68 65 68 69 63 60 57 58 59 63 61 59 58 55 52 54 82 81 76 24 7 41 47 45 71 87 94 93 69 43 28 11 13 15 21 9 16 18 59 76 72 66 93 71 83 101 99 89 93 93 91
58 65 68 66 63 64 62 59 60 57 58 59 60 58 56 57 55 60 29 19 25 29 22 8 6 29 43 51 54 53 62 46 43 23 16 12 18 24 11 39 14 58 61 64 78 90 66 88 73 82 73 80 78 79
62 64 63 63 59 54 50 52 53 56 59 56 55 56 56 56 60 69 76 77 79 51 24 10 4 11 33 20 20 37 30 40 35 27 9 7 10 11 17 18 44 64 75 83 97 93 102 112 106 105 102 106 97 97
60 61 55 54 50 48 51 53 54 55 55 55 56 55 56 59 60 81 70 65 66 63 11 4 11 10 40 16 18 18 23 7 14 5 5 18 6 17 13 27 44 71 65 83 79 71 72 75 95 96 92 97 89 83
55 54 53 48 49 51 53 53 55 55 54 51 46 39 16 31 50 49 37 23 24 42 30 12 16 5 25 13 9 11 10 5 7 10 17 8 19 54 71 87 89 107 97 88 72 75 71 81 82 80 77 72 69 62
52 51 50 48 46 50 44 41 37 33 34 33 14 19 37 39 35 18 18 18 21 10 31 23 29 7 20 8 7 12 4 4 6 8 10 6 8 15 79 97 112 113 106 94 90 98 95 87 87 84 83 72 64 52
50 48 46 46 43 40 34 30 29 33 23 12 16 25 29 13 16 15 9 6 8 10 10 12 17 16 18 15 6 10 6 5 10 9 3 7 10 66 78 76 76 67 59 64 58 63 60 58 56 57 56 52 50 43
49 46 42 42 42 37 35 33 31 34 38 47 14 10 12 15 13 7 11 7 6 13 21 18 11 18 13 13 6 6 10 10 14 3 8 10 30 52 41 38 45 48 47 45 40 30 28 31 33 37 40 36 39 36
46 44 44 42 42 38 35 34 34 35 38 13 15 10 9 8 9 7 7 6 5 13 44 37 11 6 11 8 6 10 4 5 5 2 12 8 50 50 45 45 38 45 35 27 21 18 28 36 39 38 39 37 38 38
51 54 55 52 47 42 39 37 36 43 30 15 9 10 12 14 12 16 18 9 9 30 49 20 10 5 5 6 3 9 7 5 11 11 11 5 17 13 10 25 36 36 28 19 21 30 38 44 45 43 37 37 36 33
45 45 50 49 44 40 36 37 45 39 17 16 12 8 6 2 8 10 18 16 23 43 30 7 5 5 6 8 7 12 13 13 9 11 8 19 33 32 37 37 36 40 39 37 37 40 40 40 40 37 29 29 32 32
30 40 29 27 31 31 35 39 33 16 8 10 11 24 21 13 22 37 37 32 25 36 6 5 11 7 5 5 6 8 10 10 13 3 9 7 17 31 35 33 28 29 35 38 36 34 32 33 33 31 26 27 23 27
39 32 29 26 26 35 40 31 11 9 11 22 4 7 14 17 14 18 23 30 34 18 17 10 15 5 7 9 7 9 25 15 12 14 14 19 26 35 35 27 19 16 19 21 23 22 24 27 29 27 27 24 20 21
38 34 30 29 35 25 10 9 10 6 14 10 14 20 12 13 18 26 22 44 39 18 13 12 5 5 9 7 7 3 11 6 6 2 12 30 41 44 33 24 22 22 20 17 17 19 21 24 26 25 24 23 19 16
24 21 22 26 34 14 11 11 12 10 4 6 7 7 8 7 9 11 9 30 24 15 6 7 8 10 12 18 21 12 11 9 15 22 31 31 36 40 31 23 24 21 19 19 21 25 28 28 26 23 19 17 11 9
25 34 29 33 26 15 9 8 9 6 8 6 2 6 9 4 3 3 5 11 12 7 5 11 10 20 15 4 10 12 8 4 11 18 13 28 30 31 26 20 20 19 20 23 26 27 26 23 21 18 13 10 2 8
12 29 32 36 9 7 4 9 4 3 4 8 5 4 3 2 5 9 7 6 9 12 15 17 14 12 15 13 20 21 11 13 16 10 14 15 16 20 15 16 15 16 19 23 25 25 24 21 19 16 15 10 8 13
20 23 11 10 9 10 4 6 6 4 2 6 5 5 4 3 5 8 2 13 15 23 30 29 25 21 20 24 23 23 21 23 22 16 20 19 12 14 5 5 7 13 17 23 22 22 21 18 14 13 12 11 10 14
19 7 8 7 4 5 5 1 1 1 1 3 2 6 6 5 5 3 6 10 24 26 30 32 32 31 32 34 35 33 28 27 26 23 23 22 16 11 7 8 4 15 17 20 22 21 19 13 9 11 12 10 13 16
6 4 5 2 3 7 4 5 6 4 5 1 1 6 5 4 3 4 7 12 41 48 42 43 50 47 40 45 44 41 36 30 31 32 28 30 29 18 17 18 12 19 25 17 18 16 14 10 6 11 14 15 15 20
2 6 4 11 4 9 11 7 8 11 6 6 11 5 1 5 2 13 8 21 47 59 59 49 45 50 54 53 54 47 42 38 38 39 35 33 32 26 23 25 24 19 23 13 9 9 8 5 6 9 13 18 20 23
6 10 8 9 5 12 5 2 5 5 7 11 6 6 6 5 12 9 15 33 41 39 36 36 45 52 55 51 45 38 36 38 38 38 35 34 34 30 27 31 33 27 23 15 5 1 3 3 5 11 15 22 24 26
7 18 12 14 9 7 8 4 9 12 9 12 15 9 15 17 12 10 9 13 13 17 18 23 30 33 36 41 42 41 43 46 43 38 36 38 36 33 32 31 32 30 24 19 14 8 6 8 9 12 18 22 28 30
7 12 17 2 2 4 11 14 11 18 15 29 11 9 11 21 29 31 30 25 25 22 24 26 36 41 40 38 40 39 43 48 45 42 41 38 36 32 31 30 24 23 24 21 19 17 13 14 15 17 21 25 30 33
6 21 7 3 11 12 14 31 15 22 23 32 23 19 27 48 50 52 52 53 57 60 59 59 58 62 60 55 54 52 51 55 51 45 39 34 33 30 24 27 23 25 23 21 22 21 19 21 24 28 30 33 35 36
12 19 4 8 9 13 21 27 36 40 37 31 48 46 51 34 51 58 62 66 67 69 73 77 77 72 66 58 56 60 55 52 47 42 41 41 35 29 27 28 29 26 23 21 18 18 18 25 28 31 34 35 37 36
13 13 7 5 9 11 20 12 10 11 13 13 13 20 16 12 13 18 21 32 41 42 42 43 48 47 47 48 48 46 40 42 44 45 45 39 32 28 30 33 33 28 25 24 25 25 23 27 32 36 38 38 37 36
4 9 9 8 9 8 8 8 11 9 10 8 13 14 14 12 10 8 9 14 17 18 21 23 26 28 30 32 34 36 39 37 38 39 40 38 32 28 33 35 33 30 28 27 28 28 29 31 35 38 38 37 37 37
Wind_Direction_500mb
289 289 280 277 276 283 275 278 276 278 278 276 273 266 258 260 256 253 252 243 246 256 265 247 238 240 245 219 216 154 133 176 172 209 184 200 182 214 135 182 174 167 162 193 158 204 275 192 94 176 223 282 281 296
287 281 281 272 281 279 275 273 279 276 277 276 277 281 267 262 260 251 259 255 251 238 248 251 256 242 233 233 225 199 229 169 182 149 200 115 197 93 176 228 32 239 191 186 189 207 244 192 225 242 262 273 279 280
283 274 276 279 277 276 275 275 273 273 275 274 274 274 273 265 271 258 258 254 246 236 247 250 246 245 238 235 235 223 235 215 203 218 169 173 231 137 176 230 188 243 184 235 91 226 239 251 257 266 270 275 286 285
281 276 275 279 277 276 277 275 271 271 278 272 272 271 266 268 271 269 267 254 246 233 244 253 250 240 246 238 233 238 243 240 231 213 182 181 210 198 205 200 201 180 150 186 260 274 270 262 256 268 282 286 283 285
279 282 281 279 277 275 272 269 268 268 276 281 278 277 271 269 270 264 268 267 256 240 267 244 242 249 243 229 230 231 235 230 212 181 198 217 174 172 229 57 210 179 200 212 256 264 247 274 280 285 286 282 282 285
279 284 286 282 274 275 274 274 270 269 275 281 277 276 272 271 274 271 268 264 262 259 260 258 228 236 240 225 225 227 228 227 217 202 193 221 203 197 207 249 227 237 241 236 247 261 267 271 281 281 279 281 282 285
281 286 285 281 278 276 276 275 276 274 278 278 278 274 271 268 264 254 253 219 251 249 243 239 229 202 215 210 221 219 222 221 226 237 209 208 202 195 252 251 251 255 256 257 258 262 271 269 269 281 281 283 286 282
285 286 280 279 279 278 278 277 277 278 275 275 277 275 271 270 269 264 260 261 259 265 257 278 170 174 176 162 177 196 203 211 227 238 193 183 187 217 248 248 258 261 262 262 264 262 262 273 277 275 276 281 285 280
284 282 283 283 280 279 280 280 278 277 276 275 277 276 275 269 264 263 264 261 255 234 249 273 180 200 168 149 168 166 178 183 206 208 213 167 192 223 224 215 247 261 254 262 270 271 272 268 274 277 280 284 283 283
280 280 281 278 282 279 279 279 276 277 276 273 272 274 255 252 279 265 253 236 225 221 217 223 260 219 156 148 173 138 191 176 171 222 148 212 250 254 257 263 265 267 270 272 273 276 270 271 274 280 282 286 283 286
280 280 277 278 278 283 281 271 274 275 271 266 234 236 259 272 278 220 218 200 211 207 185 182 194 158 184 128 154 208 176 135 169 246 173 247 269 243 254 255 263 268 271 271 270 276 278 274 277 282 286 285 284 281
278 275 273 276 278 273 273 272 270 274 268 231 251 269 276 256 244 237 196 214 210 203 152 161 163 143 157 151 119 173 170 65 218 139 108 271 248 253 257 258 265 274 280 281 281 279 281 279 281 282 285 284 284 282
276 272 272 271 276 265 267 270 280 281 285 284 209 236 224 226 262 272 178 266 167 169 177 165 145 148 123 169 106 178 163 196 130 108 224 236 261 260 260 273 290 305 307 285 286 283 286 287 287 289 295 290 279 273
270 263 268 274 268 266 265 272 280 280 289 220 186 244 192 252 244 243 226 212 185 189 176 169 121 142 145 156 152 163 78 171 123 236 237 244 246 256 278 300 307 318 315 297 273 281 302 300 296 293 291 289 276 267
265 264 268 268 261 258 262 272 278 280 269 222 190 228 215 249 271 278 281 275 202 174 153 136 96 129 120 145 67 116 58 183 209 223 220 262 306 307 325 316 307 312 318 309 288 294 302 302 302 299 289 283 282 269
267 267 262 261 254 249 259 272 280 266 227 208 235 249 245 17 282 259 245 251 168 162 147 118 137 191 178 142 117 202 154 214 232 222 256 320 317 306 300 301 295 292 298 299 297 301 309 312 310 305 301 289 283 259
268 263 265 249 242 252 259 267 257 229 250 209 238 219 220 258 250 257 244 245 184 161 198 138 195 198 94 155 196 197 194 214 220 313 332 324 322 330 327 317 300 287 289 293 296 303 309 309 309 308 312 307 295 255
255 255 249 247 244 253 271 230 213 236 238 228 217 223 214 240 273 256 221 219 177 211 150 191 130 143 216 181 253 229 232 264 274 329 357 7 3 358 342 337 329 312 310 312 307 308 314 315 312 313 309 307 292 256
259 254 246 239 242 243 194 208 235 252 240 248 243 255 252 253 270 267 237 198 197 203 169 142 120 187 231 217 209 155 153 128 78 339 22 14 3 354 348 341 355 357 348 333 327 335 331 333 331 322 312 310 300 262
251 241 227 225 214 213 199 214 209 239 245 257 246 249 244 238 289 267 227 194 186 171 188 203 200 193 215 157 138 116 79 21 24 346 353 355 354 350 345 355 4 353 347 346 351 357 352 346 341 334 325 322 309 229
248 229 201 201 200 203 210 204 220 243 281 256 228 229 273 199 265 266 273 178 198 208 214 222 186 148 136 197 251 228 215 244 257 266 336 332 327 347 346 357 358 354 358 5 4 358 357 0 357 354 355 356 348 179
205 190 159 183 177 188 224 214 234 224 258 291 238 212 211 281 210 195 221 247 230 226 200 200 164 192 231 219 249 263 268 273 272 296 336 315 316 335 349 353 354 354 10 12 8 3 4 9 10 19 39 47 103 142
152 149 127 138 171 172 199 204 216 218 109 274 293 350 302 287 239 204 199 224 243 209 191 197 206 210 221 235 243 255 261 265 273 300 320 319 317 304 324 330 353 355 8 11 7 8 9 11 19 38 55 75 110 148
123 131 169 159 151 195 165 109 268 118 313 34 9 296 301 271 333 34 251 244 213 204 215 233 244 245 246 252 261 271 281 286 290 305 315 309 300 285 266 255 309 338 344 11 10 12 11 12 33 57 74 94 120 138
191 236 174 348 105 76 48 357 351 67 263 343 82 293 286 359 52 255 241 274 279 275 262 257 260 261 264 273 277 275 281 296 303 302 308 313 312 305 272 255 265 298 310 345 10 13 14 14 55 92 100 106 125 135
190 215 147 186 186 150 184 168 210 214 165 192 229 263 194 100 110 244 231 257 267 273 278 277 274 270 268 269 273 276 284 288 288 288 294 301 302 296 266 237 242 274 305 305 357 30 27 23 86 108 121 126 132 137
217 242 178 179 151 141 99 73 119 117 180 211 207 156 118 175 242 252 268 264 265 270 278 277 266 263 266 269 271 273 272 273 276 278 282 286 286 287 268 248 244 257 282 265 268 47 95 90 139 144 149 142 139 141
225 176 168 173 172 204 147 152 175 208 226 185 132 183 187 199 230 225 253 301 289 265 264 276 276 272 276 276 274 269 266 268 268 269 272 273 277 275 266 248 242 245 260 241 217 202 197 161 168 168 161 155 146 142
190 171 151 124 158 192 214 197 215 222 204 178 177 215 228 228 252 261 268 270 273 271 274 281 285 290 292 293 288 278 269 260 255 255 260 268 272 271 257 242 241 240 232 226 212 197 203 175 171 172 167 161 155 151
194 173 124 182 166 220 236 202 232 240 236 228 241 253 258 261 263 259 258 260 265 273 278 277 276 277 278 275 270 260 263 256 249 245 249 253 264 258 255 232 227 223 217 212 207 207 219 189 177 176 175 168 164 160
170 189 191 186 231 245 254 258 259 266 266 259 256 250 257 269 271 268 264 263 264 264 264 263 263 265 265 261 254 250 252 246 239 234 234 239 241 244 240 222 215 215 212 208 201 207 218 200 187 184 177 173 167 167
204 204 148 230 268 276 287 259 254 247 241 240 249 232 251 236 252 258 251 247 247 251 254 253 254 253 249 245 240 234 225 216 217 215 221 226 226 226 218 214 209 207 206 205 202 212 204 195 189 182 178 173 170 168
220 215 232 276 297 289 241 262 251 268 215 232 245 224 217 218 256 269 274 255 251 258 254 250 246 235 226 216 210 204 202 206 209 213 212 207 209 210 208 208 205 206 210 209 205 201 191 186 185 180 176 174 172 171
Wind_Speed_850mb
52 46 45 50 52 55 54 56 60 58 57 56 56 60 63 58 68 66 77 76 78 68 74 47 79 75 31 45 22 19 12 9 8 9 8 8 8 13 4 8 16 19 18 10 8 8 20 34 15 17 16 8 15 24
53 52 52 54 56 55 59 59 65 58 61 61 57 60 59 58 56 69 84 80 79 81 63 32 72 105 84 83 39 35 14 20 29 6 5 5 4 2 7 8 1 6 16 13 24 21 12 42 24 38 34 30 40 40
59 54 56 60 60 63 63 64 62 61 60 58 57 58 56 62 62 64 74 74 66 83 80 86 102 75 76 95 72 51 30 25 24 20 16 7 13 8 10 13 11 10 16 7 4 21 39 60 75 75 76 83 89 80
55 56 55 59 64 62 65 63 62 58 60 63 66 66 65 63 65 68 67 80 75 51 19 52 62 69 81 92 93 99 86 41 42 45 12 7 8 25 9 7 14 12 24 11 16 41 26 67 75 86 77 66 69 63
55 57 57 61 62 66 66 66 61 55 56 63 63 65 62 63 64 74 81 77 73 62 8 33 66 58 52 67 88 91 89 76 37 18 10 11 12 7 3 3 9 24 20 14 28 66 37 50 87 76 71 71 71 73
55 60 62 68 65 68 69 63 60 57 58 59 63 61 59 58 55 52 54 82 81 76 24 7 41 47 45 71 87 94 93 69 43 28 11 13 15 21 9 16 18 59 76 72 66 93 71 83 101 99 89 93 93 91
58 65 68 66 63 64 62 59 60 57 58 59 60 58 56 57 55 60 29 19 25 29 22 8 6 29 43 51 54 53 62 46 43 23 16 12 18 24 11 39 14 58 61 64 78 90 66 88 73 82 73 80 78 79
62 64 63 63 59 54 50 52 53 56 59 56 55 56 56 56 60 69 76 77 79 51 24 10 4 11 33 20 20 37 30 40 35 27 9 7 10 11 17 18 44 64 75 83 97 93 102 112 106 105 102 106 97 97
60 61 55 54 50 48 51 53 54 55 55 55 56 55 56 59 60 81 70 65 66 63 11 4 11 10 40 16 18 18 23 7 14 5 5 18 6 17 13 27 44 71 65 83 79 71 72 75 95 96 92 97 89 83
55 54 53 48 49 51 53 53 55 55 54 51 46 39 16 31 50 49 37 23 24 42 30 12 16 5 25 13 9 11 10 5 7 10 17 8 19 54 71 87 89 107 97 88 72 75 71 81 82 80 77 72 69 62
52 51 50 48 46 50 44 41 37 33 34 33 14 19 37 39 35 18 18 18 21 10 31 23 29 7 20 8 7 12 4 4 6 8 10 6 8 15 79 97 112 113 106 94 90 98 95 87 87 84 83 72 64 52
50 48 46 46 43 40 34 30 29 33 23 12 16 25 29 13 16 15 9 6 8 10 10 12 17 16 18 15 6 10 6 5 10 9 3 7 10 66 78 76 76 67 59 64 58 63 60 58 56 57 56 52 50 43
49 46 42 42 42 37 35 33 31 34 38 47 14 10 12 15 13 7 11 7 6 13 21 18 11 18 13 13 6 6 10 10 14 3 8 10 30 52 41 38 45 48 47 45 40 30 28 31 33 37 40 36 39 36
46 44 44 42 42 38 35 34 34 35 38 13 15 10 9 8 9 7 7 6 5 13 44 37 11 6 11 8 6 10 4 5 5 2 12 8 50 50 45 45 38 45 35 27 21 18 28 36 39 38 39 37 38 38
51 54 55 52 47 42 39 37 36 43 30 15 9 10 12 14 12 16 18 9 9 30 49 20 10 5 5 6 3 9 7 5 11 11 11 5 17 13 10 25 36 36 28 19 21 30 38 44 45 43 37 37 36 33
45 45 50 49 44 40 36 37 45 39 17 16 12 8 6 2 8 10 18 16 23 43 30 7 5 5 6 8 7 12 13 13 9 11 8 19 33 32 37 37 36 40 39 37 37 40 40 40 40 37 29 29 32 32
30 40 29 27 31 31 35 39 33 16 8 10 11 24 21 13 22 37 37 32 25 36 6 5 11 7 5 5 6 8 10 10 13 3 9 7 17 31 35 33 28 29 35 38 36 34 32 33 33 31 26 27 23 27
39 32 29 26 26 35 40 31 11 9 11 22 4 7 14 17 14 18 23 30 34 18 17 10 15 5 7 9 7 9 25 15 12 14 14 19 26 35 35 27 19 16 19 21 23 22 24 27 29 27 27 24 20 21
38 34 30 29 35 25 10 9 10 6 14 10 14 20 12 13 18 26 22 44 39 18 13 12 5 5 9 7 7 3 11 6 6 2 12 30 41 44 33 24 22 22 20 17 17 19 21 24 26 25 24 23 19 16
24 21 22 26 34 14 11 11 12 10 4 6 7 7 8 7 9 11 9 30 24 15 6 7 8 10 12 18 21 12 11 9 15 22 31 31 36 40 31 23 24 21 19 19 21 25 28 28 26 23 19 17 11 9
25 34 29 33 26 15 9 8 9 6 8 6 2 6 9 4 3 3 5 11 12 7 5 11 10 20 15 4 10 12 8 4 11 18 13 28 30 31 26 20 20 19 20 23 26 27 26 23 21 18 13 10 2 8
12 29 32 36 9 7 4 9 4 3 4 8 5 4 3 2 5 9 7 6 9 12 15 17 14 12 15 13 20 21 11 13 16 10 14 15 16 20 15 16 15 16 19 23 25 25 24 21 19 16 15 10 8 13
20 23 11 10 9 10 4 6 6 4 2 6 5 5 4 3 5 8 2 13 15 23 30 29 25 21 20 24 23 23 21 23 22 16 20 19 12 14 5 5 7 13 17 23 22 22 21 18 14 13 12 11 10 14
19 7 8 7 4 5 5 1 1 1 1 3 2 6 6 5 5 3 6 10 24 26 30 32 32 31 32 34 35 33 28 27 26 23 23 22 16 11 7 8 4 15 17 20 22 21 19 13 9 11 12 10 13 16
6 4 5 2 3 7 4 5 6 4 5 1 1 6 5 4 3 4 7 12 41 48 42 43 50 47 40 45 44 41 36 30 31 32 28 30 29 18 17 18 12 19 25 17 18 16 14 10 6 11 14 15 15 20
2 6 4 11 4 9 11 7 8 11 6 6 11 5 1 5 2 13 8 21 47 59 59 49 45 50 54 53 54 47 42 38 38 39 35 33 32 26 23 25 24 19 23 13 9 9 8 5 6 9 13 18 20 23
6 10 8 9 5 12 5 2 5 5 7 11 6 6 6 5 12 9 15 33 41 39 36 36 45 52 55 51 45 38 36 38 38 38 35 34 34 30 27 31 33 27 23 15 5 1 3 3 5 11 15 22 24 26
7 18 12 14 9 7 8 4 9 12 9 12 15 9 15 17 12 10 9 13 13 17 18 23 30 33 36 41 42 41 43 46 43 38 36 38 36 33 32 31 32 30 24 19 14 8 6 8 9 12 18 22 28 30
7 12 17 2 2 4 11 14 11 18 15 29 11 9 11 21 29 31 30 25 25 22 24 26 36 41 40 38 40 39 43 48 45 42 41 38 36 32 31 30 24 23 24 21 19 17 13 14 15 17 21 25 30 33
6 21 7 3 11 12 14 31 15 22 23 32 23 19 27 48 50 52 52 53 57 60 59 59 58 62 60 55 54 52 51 55 51 45 39 34 33 30 24 27 23 25 23 21 22 21 19 21 24 28 30 33 35 36
12 19 4 8 9 13 21 27 36 40 37 31 48 46 51 34 51 58 62 66 67 69 73 77 77 72 66 58 56 60 55 52 47 42 41 41 35 29 27 28 29 26 23 21 18 18 18 25 28 31 34 35 37 36
13 13 7 5 9 11 20 12 10 11 13 13 13 20 16 12 13 18 21 32 41 42 42 43 48 47 47 48 48 46 40 42 44 45 45 39 32 28 30 33 33 28 25 24 25 25 23 27 32 36 38 38 37 36
4 9 9 8 9 8 8 8 11 9 10 8 13 14 14 12 10 8 9 14 17 18 21 23 26 28 30 32 34 36 39 37 38 39 40 38 32 28 33 35 33 30 28 27 28 28 29 31 35 38 38 37 37 37
Wind_Direction_850mb
289 289 280 277 276 283 275 278 276 278 278 276 273 266 258 260 256 253 252 243 246 256 265 247 238 240 245 219 216 154 133 176 172 209 184 200 182 214 135 182 174 167 162 193 158 204 275 192 94 176 223 282 281 296
287 281 281 272 281 279 275 273 279 276 277 276 277 281 267 262 260 251 259 255 251 238 248 251 256 242 233 233 225 199 229 169 182 149 200 115 197 93 176 228 32 239 191 186 189 207 244 192 225 242 262 273 279 280
283 274 276 279 277 276 275 275 273 273 275 274 274 274 273 265 271 258 258 254 246 236 247 250 246 245 238 235 235 223 235 215 203 218 169 173 231 137 176 230 188 243 184 235 91 226 239 251 257 266 270 275 286 285
281 276 275 279 277 276 277 275 271 271 278 272 272 271 266 268 271 269 267 254 246 233 244 253 250 240 246 238 233 238 243 240 231 213 182 181 210 198 205 200 201 180 150 186 260 274 270 262 256 268 282 286 283 285
279 282 281 279 277 275 272 269 268 268 276 281 278 277 271 269 270 264 268 267 256 240 267 244 242 249 243 229 230 231 235 230 212 181 198 217 174 172 229 57 210 179 200 212 256 264 247 274 280 285 286 282 282 285
279 284 286 282 274 275 274 274 270 269 275 281 277 276 272 271 274 271 268 264 262 259 260 258 228 236 240 225 225 227 228 227 217 202 193 221 203 197 207 249 227 237 241 236 247 261 267 271 281 281 279 281 282 285
281 286 285 281 278 276 276 275 276 274 278 278 278 274 271 268 264 254 253 219 251 249 243 239 229 202 215 210 221 219 222 221 226 237 209 208 202 195 252 251 251 255 256 257 258 262 271 269 269 281 281 283 286 282
285 286 280 279 279 278 278 277 277 278 275 275 277 275 271 270 269 264 260 261 259 265 257 278 170 174 176 162 177 196 203 211 227 238 193 183 187 217 248 248 258 261 262 262 264 262 262 273 277 275 276 281 285 280
284 282 283 283 280 279 280 280 278 277 276 275 277 276 275 269 264 263 264 261 255 234 249 273 180 200 168 149 168 166 178 183 206 208 213 167 192 223 224 215 247 261 254 262 270 271 272 268 274 277 280 284 283 283
280 280 281 278 282 279 279 279 276 277 276 273 272 274 255 252 279 265 253 236 225 221 217 223 260 219 156 148 173 138 191 176 171 222 148 212 250 254 257 263 265 267 270 272 273 276 270 271 274 280 282 286 283 286
280 280 277 278 278 283 281 271 274 275 271 266 234 236 259 272 278 220 218 200 211 207 185 182 194 158 184 128 154 208 176 135 169 246 173 247 269 243 254 255 263 268 271 271 270 276 278 274 277 282 286 285 284 281
278 275 273 276 278 273 273 272 270 274 268 231 251 269 276 256 244 237 196 214 210 203 152 161 163 143 157 151 119 173 170 65 218 139 108 271 248 253 257 258 265 274 280 281 281 279 281 279 281 282 285 284 284 282
276 272 272 271 276 265 267 270 280 281 285 284 209 236 224 226 262 272 178 266 167 169 177 165 145 148 123 169 106 178 163 196 130 108 224 236 261 260 260 273 290 305 307 285 286 283 286 287 287 289 295 290 279 273
270 263 268 274 268 266 265 272 280 280 289 220 186 244 192 252 244 243 226 212 185 189 176 169 121 142 145 156 152 163 78 171 123 236 237 244 246 256 278 300 307 318 315 297 273 281 302 300 296 293 291 289 276 267
265 264 268 268 261 258 262 272 278 280 269 222 190 228 215 249 271 278 281 275 202 174 153 136 96 129 120 145 67 116 58 183 209 223 220 262 306 307 325 316 307 312 318 309 288 294 302 302 302 299 289 283 282 269
267 267 262 261 254 249 259 272 280 266 227 208 235 249 245 17 282 259 245 251 168 162 147 118 137 191 178 142 117 202 154 214 232 222 256 320 317 306 300 301 295 292 298 299 297 301 309 312 310 305 301 289 283 259
268 263 265 249 242 252 259 267 257 229 250 209 238 219 220 258 250 257 244 245 184 161 198 138 195 198 94 155 196 197 194 214 220 313 332 324 322 330 327 317 300 287 289 293 296 303 309 309 309 308 312 307 295 255
255 255 249 247 244 253 271 230 213 236 238 228 217 223 214 240 273 256 221 219 177 211 150 191 130 143 216 181 253 229 232 264 274 329 357 7 3 358 342 337 329 312 310 312 307 308 314 315 312 313 309 307 292 256
259 254 246 239 242 243 194 208 235 252 240 248 243 255 252 253 270 267 237 198 197 203 169 142 120 187 231 217 209 155 153 128 78 339 22 14 3 354 348 341 355 357 348 333 327 335 331 333 331 322 312 310 300 262
251 241 227 225 214 213 199 214 209 239 245 257 246 249 244 238 289 267 227 194 186 171 188 203 200 193 215 157 138 116 79 21 24 346 353 355 354 350 345 355 4 353 347 346 351 357 352 346 341 334 325 322 309 229
248 229 201 201 200 203 210 204 220 243 281 256 228 229 273 199 265 266 273 178 198 208 214 222 186 148 136 197 251 228 215 244 257 266 336 332 327 347 346 357 358 354 358 5 4 358 357 0 357 354 355 356 348 179
205 190 159 183 177 188 224 214 234 224 258 291 238 212 211 281 210 195 221 247 230 226 200 200 164 192 231 219 249 263 268 273 272 296 336 315 316 335 349 353 354 354 10 12 8 3 4 9 10 19 39 47 103 142
152 149 127 138 171 172 199 204 216 218 109 274 293 350 302 287 239 204 199 224 243 209 191 197 206 210 221 235 243 255 261 265 273 300 320 319 317 304 324 330 353 355 8 11 7 8 9 11 19 38 55 75 110 148
123 131 169 159 151 195 165 109 268 118 313 34 9 296 301 271 333 34 251 244 213 204 215 233 244 245 246 252 261 271 281 286 290 305 315 309 300 285 266 255 309 338 344 11 10 12 11 12 33 57 74 94 120 138
191 236 174 348 105 76 48 357 351 67 263 343 82 293 286 359 52 255 241 274 279 275 262 257 260 261 264 273 277 275 281 296 303 302 308 313 312 305 272 255 265 298 310 345 10 13 14 14 55 92 100 106 125 135
190 215 147 186 186 150 184 168 210 214 165 192 229 263 194 100 110 244 231 257 267 273 278 277 274 270 268 269 273 276 284 288 288 288 294 301 302 296 266 237 242 274 305 305 357 30 27 23 86 108 121 126 132 137
217 242 178 179 151 141 99 73 119 117 180 211 207 156 118 175 242 252 268 264 265 270 278 277 266 263 266 269 271 273 272 273 276 278 282 286 286 287 268 248 244 257 282 265 268 47 95 90 139 144 149 142 139 141
225 176 168 173 172 204 147 152 175 208 226 185 132 183 187 199 230 225 253 301 289 265 264 276 276 272 276 276 274 269 266 268 268 269 272 273 277 275 266 248 242 245 260 241 217 202 197 161 168 168 161 155 146 142
190 171 151 124 158 192 214 197 215 222 204 178 177 215 228 228 252 261 268 270 273 271 274 281 285 290 292 293 288 278 269 260 255 255 260 268 272 271 257 242 241 240 232 226 212 197 203 175 171 172 167 161 155 151
194 173 124 182 166 220 236 202 232 240 236 228 241 253 258 261 263 259 258 260 265 273 278 277 276 277 278 275 270 260 263 256 249 245 249 253 264 258 255 232 227 223 217 212 207 207 219 189 177 176 175 168 164 160
170 189 191 186 231 245 254 258 259 266 266 259 256 250 257 269 271 268 264 263 264 264 264 263 263 265 265 261 254 250 252 246 239 234 234 239 241 244 240 222 215 215 212 208 201 207 218 200 187 184 177 173 167 167
204 204 148 230 268 276 287 259 254 247 241 240 249 232 251 236 252 258 251 247 247 251 254 253 254 253 249 245 240 234 225 216 217 215 221 226 226 226 218 214 209 207 206 205 202 212 204 195 189 182 178 173 170 168
220 215 232 276 297 289 241 262 251 268 215 232 245 224 217 218 256 269 274 255 251 258 254 250 246 235 226 216 210 204 202 206 209 213 212 207 209 210 208 208 205 206 210 209 205 201 191 186 185 180 176 174 172 171